Waukegan, IL

8:17 PM CST on December 07, 2016 (GMT -0600)
Waukegan Regional

Weather History for KUGN - June, 2013

Change the Weather History Date:

Monday, June 24, 2013

  Actual Average Record
Temperature  
Mean Temperature 75 °F -  
Max Temperature 82 °F 78 °F 95 °F (1997)
Min Temperature 67 °F 59 °F 46 °F (2006)
Degree Days  
Heating Degree Days 0 1  
Month to date heating degree days 97 80  
Since 1 June heating degree days 97 80  
Since 1 July heating degree days 6685 6831  
Cooling Degree Days 10 5  
Month to date cooling degree days 58 71  
Year to date cooling degree days 105 96  
Since 1 June cooling degree days 58 71  
Growing Degree Days 24 (Base 50)    
Moisture  
Dew Point 66 °F    
Average Humidity 76    
Maximum Humidity 93    
Minimum Humidity 58    
Precipitation  
Precipitation 0.05 in 0.13 in 1.24 in (2000)
Month to date precipitation 2.65 3.29  
Year to date precipitation 16.51 16.15  
Sea Level Pressure  
Sea Level Pressure 29.94 in    
Wind  
Wind Speed 9 mph (SSW)    
Max Wind Speed 23 mph    
Max Gust Speed 32 mph    
Visibility 9 miles    
Events Rain    
T = Trace of Precipitation, MM = Missing Value Source: NWS Daily Summary

Daily Weather History Graph

Daily Weather History Graph

Search for Another Location

Airport or City:

Trip Planner

Search our weather history database for the weather conditions in past years. The results will help you decide how hot, cold, wet, or windy it might be!

Date:

Astronomy

Jun. 24, 2013 Rise Set
Actual Time 5:15 AM CDT 8:32 PM CDT
Civil Twilight 4:40 AM CDT 9:07 PM CDT
Nautical Twilight 3:55 AM CDT 9:52 PM CDT
Astronomical Twilight 3:00 AM CDT 10:47 PM CDT
Moon 9:31 PM CDT (6/24) 6:44 AM CDT (6/24)
Length of Visible Light 16h 26m
Length of Day
15h 17m
Full, 98% of the Moon is Illuminated
Jun 24
Full
Jun 29
Last Quarter
Jul 8
New
Jul 15
First Quarter
Jul 22
Full

Hourly Weather History & Observations

Time (CDT) Temp. Heat Index Dew Point Humidity Pressure Visibility Wind Dir Wind Speed Gust Speed Precip Events Conditions
12:52 AM 73.0 °F - 69.1 °F 87% 29.94 in 10.0 mi SSW 8.1 mph - N/A   Clear
1:52 AM 72.0 °F - 69.1 °F 91% 29.94 in 9.0 mi SSW 5.8 mph - N/A   Clear
2:52 AM 71.1 °F - 68.0 °F 90% 29.94 in 8.0 mi SW 5.8 mph - N/A   Clear
3:52 AM 70.0 °F - 66.9 °F 90% 29.94 in 8.0 mi SSW 6.9 mph - N/A   Clear
4:52 AM 70.0 °F - 66.9 °F 90% 29.94 in 8.0 mi SSW 9.2 mph - N/A   Clear
5:52 AM 71.1 °F - 68.0 °F 90% 29.96 in 7.0 mi SSW 12.7 mph - N/A   Mostly Cloudy
6:52 AM 71.1 °F - 66.9 °F 87% 29.97 in 9.0 mi SSW 11.5 mph - N/A   Partly Cloudy
7:52 AM 72.0 °F - 66.0 °F 81% 29.99 in 10.0 mi SW 10.4 mph 21.9 mph N/A   Overcast
8:52 AM 70.0 °F - 66.9 °F 90% 30.03 in 4.0 mi SW 10.4 mph - 0.03 in Rain Rain
9:07 AM 69.8 °F - 66.2 °F 88% 30.06 in 5.0 mi SW 12.7 mph - 0.01 in Rain Light Rain
9:52 AM 71.1 °F - 68.0 °F 90% 30.00 in 10.0 mi SW 8.1 mph - 0.01 in   Mostly Cloudy
10:52 AM 73.9 °F - 66.0 °F 76% 29.99 in 10.0 mi SW 15.0 mph 23.0 mph N/A   Clear
11:52 AM 75.0 °F - 64.9 °F 71% 29.95 in 10.0 mi SSW 13.8 mph - N/A   Partly Cloudy
12:52 PM 80.1 °F 81.7 °F 64.0 °F 58% 29.94 in 10.0 mi SSW 6.9 mph - N/A   Clear
1:52 PM 80.1 °F 81.7 °F 64.0 °F 58% 29.95 in 10.0 mi SSW 12.7 mph - N/A   Clear
2:52 PM 75.9 °F - 66.0 °F 71% 29.94 in 9.0 mi SE 10.4 mph - N/A   Scattered Clouds
3:52 PM 77.0 °F - 64.9 °F 66% 29.92 in 10.0 mi ESE 8.1 mph - N/A   Clear
4:52 PM 75.9 °F - 66.9 °F 74% 29.92 in 9.0 mi ESE 5.8 mph - N/A   Clear
5:52 PM 73.9 °F - 66.0 °F 76% 29.89 in 9.0 mi SE 8.1 mph - N/A   Clear
6:52 PM 73.0 °F - 63.0 °F 71% 29.87 in 10.0 mi SW 15.0 mph 32.2 mph N/A   Partly Cloudy
7:03 PM 71.6 °F - 62.6 °F 73% 29.90 in 10.0 mi SW 15.0 mph 24.2 mph N/A   Partly Cloudy
7:52 PM 68.0 °F - 64.0 °F 87% 29.81 in 10.0 mi Variable 6.9 mph - 0.01 in Rain Light Rain
8:52 PM 69.1 °F - 64.9 °F 87% 29.86 in 10.0 mi Variable 4.6 mph - 0.00 in   Scattered Clouds
9:52 PM 69.1 °F - 64.9 °F 87% 29.89 in 10.0 mi Variable 4.6 mph 17.3 mph N/A   Clear
10:52 PM 68.0 °F - 64.9 °F 90% 29.91 in 10.0 mi SSW 10.4 mph - N/A   Clear
11:52 PM 66.9 °F - 64.9 °F 93% 29.91 in 10.0 mi SW 4.6 mph - N/A   Clear